Location: Mountain Grove
(34.0887°N, 86.6172°W)
Time: 15:19:26
(UTC+00:00)

Tsikada Rocket - Pass Details

Date: 14 July 2020
Orbit: 959 x 1008 km, 82.9° (Epoch: 13 August)

Event Time Altitude Azimuth Distance (km) Brightness Sun altitude
Rises 08:33:59 0° 346° (NNW) 3,743 7.5 -22.4°
Reaches altitude 10° 08:36:38 10° 340° (NNW) 2,790 6.7 -22.0°
Maximum altitude 08:42:39 44° 270° (W) 1,355 4.4 -21.2°
Enters shadow 08:44:18 37° 233° (SW) 1,509 4.5 -20.9°
